Temp
35 35 35 35 35 35 35 35 36 36 35 35 34 35 35 35 35 36 36 36 36 36 36 37 37 38 39 39 39 39 39 40 40 41 41 41 41 41 41 41 41 41 41 41 41 41 42 42 41 41 42 42 43 43 44 45 44 44 43 43 44 45 45 46 46 47 48 49 49
35 35 35 36 35 35 35 35 35 35 34 34 34 35 35 35 35 35 35 35 36 36 36 37 37 38 38 38 39 39 39 39 40 40 41 41 41 41 41 41 41 41 41 41 41 41 41 41 40 40 41 42 42 43 43 45 45 44 44 44 44 45 45 45 46 47 49 49 50
34 35 35 34 34 34 34 33 33 33 33 34 34 35 35 35 35 35 35 35 35 36 36 36 37 37 38 38 38 39 39 39 39 40 40 40 40 40 41 41 41 41 41 41 41 41 41 40 40 40 40 41 42 42 43 45 45 44 43 44 44 45 45 46 47 48 49 49 50
34 34 34 34 33 33 33 32 33 33 33 34 34 35 35 35 35 35 35 35 35 35 36 36 36 37 38 38 38 38 39 39 40 39 39 39 39 40 40 40 40 40 40 40 41 41 41 40 40 40 40 41 41 42 43 44 44 44 44 44 45 45 46 46 47 47 48 49 49
33 34 33 33 33 33 33 32 32 33 33 34 34 34 35 35 35 35 35 34 34 35 35 36 36 37 37 38 38 38 38 39 40 39 39 39 39 39 39 40 39 40 40 40 40 41 41 41 40 40 40 40 41 42 43 44 44 44 44 44 45 45 46 46 47 47 48 48 49
33 33 33 33 33 33 33 33 32 33 33 34 34 34 33 34 34 34 34 33 34 35 36 36 37 37 37 37 37 37 38 39 39 39 39 39 39 39 39 40 40 40 40 40 40 41 41 41 40 40 40 40 41 41 42 42 43 43 44 44 45 45 46 46 46 47 47 47 48
33 33 33 33 33 32 32 32 32 33 33 33 33 33 33 33 33 33 33 33 34 35 35 36 36 36 36 36 36 36 37 38 39 39 39 38 39 39 39 39 39 39 39 39 40 40 40 40 39 39 40 40 40 41 41 41 40 41 42 43 45 46 46 46 46 46 46 46 46
33 33 32 32 32 32 32 32 32 32 32 33 32 32 32 32 32 33 33 33 34 34 35 35 35 35 36 36 36 36 37 38 38 38 38 38 39 39 39 39 39 39 39 39 39 39 39 40 39 39 38 39 39 40 40 39 39 39 39 41 43 45 46 46 46 46 46 46 46
32 32 32 32 32 31 31 31 31 31 32 32 32 32 32 32 32 32 32 33 33 34 35 35 35 35 36 36 36 36 37 38 38 38 38 38 39 39 39 39 39 39 39 39 39 39 39 39 39 39 39 39 39 39 39 39 38 38 38 39 41 43 44 46 46 46 46 46 46
30 31 31 31 31 31 31 30 31 31 31 31 31 31 32 32 32 32 32 32 33 34 34 34 35 35 35 36 36 36 37 38 38 38 38 38 38 38 38 38 38 38 38 39 38 38 38 39 39 39 39 39 39 39 39 39 38 38 38 38 39 40 41 43 45 45 46 46 46
29 30 30 30 30 30 30 29 30 30 31 30 30 30 31 31 31 31 32 32 32 33 33 34 34 35 35 35 35 36 36 37 37 37 38 38 38 38 38 38 38 37 38 38 38 38 38 38 38 39 39 39 39 39 39 38 38 38 38 38 38 38 39 40 42 44 45 46 46
28 29 29 29 29 29 29 29 29 29 30 30 30 30 30 30 30 31 31 31 31 31 32 33 34 34 34 35 35 35 36 36 37 37 37 37 37 37 37 37 37 37 37 37 37 37 37 37 38 38 38 38 39 39 38 38 37 37 37 37 37 37 37 38 39 42 44 45 46
27 27 28 28 28 28 28 28 28 29 29 29 29 29 29 30 30 30 30 30 30 31 31 32 33 33 34 35 35 35 35 36 36 37 37 37 37 37 36 36 36 36 37 37 37 37 36 36 37 37 37 37 38 38 38 38 37 37 36 36 37 36 36 36 37 39 41 43 45
26 26 26 27 27 27 27 27 27 28 28 28 28 29 29 29 30 30 30 29 29 30 30 31 32 33 34 34 34 34 35 35 35 36 36 37 37 36 36 35 35 36 36 36 37 36 36 35 36 36 37 37 37 38 38 38 38 37 36 36 36 36 36 36 37 37 38 40 42
25 25 25 26 26 26 26 26 26 27 27 27 28 28 28 29 29 29 29 29 29 29 30 30 31 32 33 34 34 34 34 34 35 35 35 36 36 36 35 35 35 35 35 35 36 35 35 34 35 36 36 36 37 37 38 38 37 37 36 35 35 36 36 36 36 37 37 38 39
24 24 25 25 25 25 25 25 26 26 26 26 27 27 28 28 29 29 28 28 28 29 29 29 29 30 31 33 33 33 33 33 34 34 34 34 35 35 35 35 34 34 34 35 35 35 34 34 35 35 36 36 36 36 37 37 37 36 36 36 36 36 36 36 36 36 37 37 38
23 24 24 24 24 24 24 25 25 26 26 26 26 27 27 28 28 28 28 28 28 28 28 28 28 29 30 31 31 32 32 32 32 32 33 33 33 34 34 34 34 34 34 34 34 34 34 34 35 36 36 36 36 36 36 36 36 36 36 36 36 36 36 36 36 36 36 37 37
23 23 23 23 23 23 24 24 24 25 25 25 26 26 27 27 27 27 27 27 27 27 27 27 28 29 29 29 30 30 30 30 31 31 31 32 32 33 33 33 33 34 34 34 34 33 34 34 35 36 36 36 36 35 35 35 36 36 36 36 36 36 36 36 36 36 36 36 37
22 23 23 23 23 23 23 24 24 24 24 24 25 25 26 26 26 25 25 26 26 26 26 26 27 28 28 28 29 29 30 30 30 30 31 31 32 32 32 33 33 33 33 33 33 33 33 34 35 36 36 36 35 35 35 35 35 35 35 35 35 35 35 36 36 36 36 36 36
22 22 22 23 23 23 23 23 23 24 24 24 24 25 25 25 25 25 24 24 25 26 26 26 26 27 28 28 28 29 29 30 30 30 30 31 31 32 32 32 33 33 33 33 33 33 33 34 35 36 36 35 35 34 34 34 34 34 34 34 34 34 35 35 35 35 36 36 36
22 22 22 23 23 23 23 23 23 23 24 24 24 25 25 25 25 24 24 25 25 25 25 25 26 26 27 27 28 28 29 29 29 29 30 30 31 32 32 32 33 33 33 33 33 33 33 34 36 36 35 35 34 34 33 33 33 33 34 34 34 34 34 34 34 35 35 35 36
21 22 22 23 23 23 23 23 23 23 24 24 24 24 25 24 24 24 24 25 25 25 25 25 26 26 26 27 27 28 28 29 29 29 30 30 31 32 32 32 32 32 32 32 32 32 33 35 36 36 35 34 33 33 33 33 33 33 33 33 34 33 33 33 33 34 34 34 35
21 22 22 23 23 23 23 23 23 23 23 24 24 24 24 24 24 24 24 24 24 24 25 25 26 26 27 27 27 27 28 28 28 29 30 30 31 32 32 32 32 31 31 32 32 33 33 34 35 35 34 33 33 33 33 33 32 32 32 33 33 33 33 33 33 33 33 34 34
21 22 22 22 22 23 23 23 23 23 23 23 24 24 24 24 23 23 23 23 23 24 24 24 25 26 27 27 27 27 27 27 28 28 29 30 31 31 32 32 31 31 31 32 33 35 36 35 35 34 33 33 32 32 33 32 32 32 32 32 32 33 33 33 33 33 33 33 34
21 22 22 22 22 22 22 22 22 23 23 24 24 24 24 23 23 23 22 22 23 23 24 24 25 26 27 27 27 27 27 27 27 28 28 29 30 31 31 31 31 31 32 33 36 38 39 40 38 36 34 33 33 33 33 33 33 33 33 33 33 33 33 33 33 33 33 33 34
21 21 21 21 21 21 21 22 22 22 23 24 24 24 23 23 22 22 22 22 22 23 23 24 25 26 27 27 27 27 27 27 28 28 28 29 30 31 31 31 30 31 32 34 37 39 40 42 41 39 36 34 34 34 34 34 34 33 33 33 33 33 33 33 33 33 33 33 34
20 20 20 20 20 20 21 21 22 22 23 24 24 23 22 22 22 21 21 21 22 23 24 24 25 27 27 27 27 26 27 27 27 28 28 29 29 30 30 30 30 30 31 35 38 39 40 41 41 40 38 35 35 34 34 34 34 34 33 33 33 33 33 33 33 34 34 33 34
20 20 20 20 20 20 20 21 21 22 23 23 23 22 22 22 21 21 21 21 21 22 23 25 26 27 27 26 26 26 26 27 28 28 29 29 29 30 30 30 30 31 33 36 38 39 40 40 41 40 39 37 35 34 34 34 34 34 33 33 33 33 33 33 34 34 34 34 34
19 19 19 19 19 19 20 20 21 22 23 23 23 22 21 21 21 21 21 21 21 22 24 25 26 26 26 25 26 26 27 27 28 29 29 29 30 30 31 30 30 31 34 37 38 39 40 39 40 40 39 38 36 35 34 34 34 34 34 33 33 33 33 34 34 34 34 34 35
18 18 18 18 18 19 19 20 21 22 23 23 22 21 21 20 20 20 20 20 21 23 24 25 25 25 25 25 26 26 26 27 28 29 29 29 30 30 31 31 30 31 33 36 38 39 40 39 39 39 39 38 36 35 34 34 34 34 34 34 33 33 34 34 34 34 35 35 35
18 18 18 18 18 18 19 20 21 22 23 23 22 21 20 20 20 20 20 21 22 23 24 24 24 24 24 25 26 26 26 27 28 29 29 29 30 30 30 30 30 31 33 36 38 39 40 39 39 39 39 38 36 35 34 34 34 34 34 34 34 34 34 34 34 34 34 35 35
17 17 17 17 17 18 19 20 21 22 22 22 21 21 20 20 20 20 21 22 23 23 23 23 23 23 24 25 26 26 27 27 28 29 30 30 30 30 30 30 30 31 33 36 38 39 40 39 39 39 38 38 36 35 34 34 34 35 34 35 34 34 34 34 34 33 33 34 35
17 17 17 17 17 18 19 20 21 21 22 21 21 21 20 20 20 20 21 22 23 23 23 22 23 23 24 25 25 26 27 28 29 29 30 30 30 30 30 30 30 31 34 36 38 39 40 40 39 38 38 37 36 35 34 34 35 34 34 35 35 34 34 33 34 33 33 34 35
17 17 17 17 17 18 19 20 20 21 21 21 21 20 20 20 20 20 20 22 23 23 22 22 23 23 24 25 25 26 27 29 29 30 30 30 30 30 30 30 30 32 34 36 37 39 40 40 39 38 37 36 35 35 34 34 34 34 34 34 35 35 34 34 34 33 33 34 35
17 17 17 17 18 18 19 19 20 21 21 20 20 20 20 20 20 20 20 22 23 23 22 22 23 24 25 25 26 27 28 28 29 29 30 30 29 29 30 30 30 32 34 35 37 38 39 40 39 37 36 35 35 34 34 34 34 34 33 33 34 34 34 34 34 34 33 34 36
18 17 17 17 18 18 19 19 20 20 20 20 20 20 20 20 20 20 21 22 22 22 22 22 23 24 24 25 26 27 28 28 29 29 29 29 29 29 29 30 30 32 33 35 36 38 39 40 39 37 36 35 34 34 34 34 34 33 33 33 33 34 34 34 34 34 34 34 35
18 18 18 18 18 18 18 19 20 20 20 20 20 20 19 19 20 20 21 22 21 21 21 21 22 23 23 24 25 26 28 28 29 29 29 29 29 29 29 29 30 31 32 35 36 37 38 39 39 37 35 34 34 34 34 34 33 33 33 32 33 33 34 34 34 34 34 34 35
18 18 18 18 18 18 18 19 19 19 20 20 20 20 20 20 20 20 21 22 20 20 20 21 22 23 23 24 25 27 28 29 29 28 28 28 29 29 29 29 29 30 32 34 36 37 38 39 39 37 35 33 33 33 33 33 33 33 33 32 33 33 33 34 34 34 34 34 35
19 19 19 18 18 18 18 19 19 20 20 20 20 20 20 20 20 20 21 21 20 20 20 21 22 22 24 25 26 27 27 28 28 28 28 28 29 29 30 29 29 30 32 34 35 37 38 39 39 38 35 32 32 33 33 33 33 32 32 32 33 33 33 33 34 34 34 35 36
20 20 19 19 18 18 19 19 20 20 21 21 20 20 20 21 21 21 21 21 20 20 21 21 22 23 24 25 26 26 27 28 28 28 28 28 29 30 30 29 29 30 31 33 35 37 38 39 39 38 36 32 32 32 33 32 32 32 32 32 32 32 32 33 33 34 34 34 35
20 20 20 19 19 19 19 19 20 21 21 21 21 21 21 21 21 20 20 20 20 21 21 22 22 23 23 24 25 26 26 27 27 27 27 28 28 29 29 28 29 29 31 32 35 36 38 38 39 38 37 33 32 32 32 32 31 31 31 32 32 32 32 32 33 33 33 33 34
MSLP
1030.72 1030.52 1030.28 1030.08 1029.84 1029.64 1029.36 1029.08 1028.84 1028.68 1028.52 1028.32 1028.04 1027.68 1027.36 1027.04 1026.72 1026.48 1026.28 1026.08 1025.80 1025.52 1025.16 1024.84 1024.52 1024.16 1023.84 1023.52 1023.24 1022.92 1022.52 1022.20 1021.84 1021.52 1021.24 1020.96 1020.72 1020.40 1020.08 1019.76 1019.48 1019.12 1018.80 1018.44 1018.04 1017.64 1017.28 1016.96 1016.64 1016.28 1015.88 1015.44 1015.08 1014.72 1014.44 1014.20 1013.96 1013.80 1013.64 1013.40 1013.16 1012.88 1012.64 1012.36 1012.08 1011.80 1011.56 1011.32 1011.08
1030.80 1030.60 1030.44 1030.24 1030.04 1029.80 1029.52 1029.24 1029.04 1028.92 1028.72 1028.52 1028.16 1027.84 1027.52 1027.20 1026.92 1026.64 1026.44 1026.24 1025.96 1025.68 1025.36 1024.96 1024.56 1024.24 1023.88 1023.52 1023.24 1022.92 1022.52 1022.16 1021.80 1021.52 1021.24 1020.96 1020.72 1020.40 1020.04 1019.68 1019.40 1019.08 1018.76 1018.36 1018.00 1017.60 1017.24 1016.88 1016.56 1016.20 1015.76 1015.32 1014.92 1014.52 1014.24 1013.92 1013.72 1013.52 1013.36 1013.12 1012.92 1012.64 1012.36 1012.08 1011.80 1011.52 1011.24 1010.96 1010.76
1030.88 1030.68 1030.52 1030.32 1030.16 1029.92 1029.68 1029.44 1029.24 1029.04 1028.80 1028.52 1028.24 1027.92 1027.64 1027.36 1027.08 1026.88 1026.64 1026.36 1026.08 1025.80 1025.40 1025.00 1024.60 1024.24 1023.92 1023.52 1023.24 1022.88 1022.52 1022.16 1021.80 1021.52 1021.24 1020.96 1020.68 1020.36 1020.08 1019.68 1019.36 1019.08 1018.72 1018.32 1017.92 1017.56 1017.24 1016.88 1016.52 1016.12 1015.68 1015.24 1014.84 1014.44 1014.04 1013.68 1013.52 1013.32 1013.08 1012.80 1012.64 1012.36 1012.08 1011.76 1011.40 1011.12 1010.96 1010.80 1010.60
1031.00 1030.80 1030.56 1030.36 1030.24 1030.08 1029.88 1029.64 1029.40 1029.16 1028.88 1028.60 1028.28 1028.00 1027.76 1027.52 1027.28 1027.00 1026.72 1026.44 1026.08 1025.76 1025.44 1025.08 1024.64 1024.28 1023.88 1023.52 1023.24 1022.88 1022.52 1022.12 1021.80 1021.52 1021.24 1020.96 1020.64 1020.36 1020.04 1019.64 1019.36 1019.00 1018.64 1018.28 1017.92 1017.52 1017.20 1016.84 1016.52 1016.08 1015.64 1015.20 1014.76 1014.36 1013.92 1013.52 1013.24 1013.04 1012.80 1012.52 1012.28 1012.04 1011.76 1011.44 1011.24 1011.04 1010.84 1010.68 1010.52
1031.08 1030.88 1030.68 1030.52 1030.36 1030.20 1030.00 1029.80 1029.56 1029.28 1028.96 1028.64 1028.36 1028.08 1027.80 1027.60 1027.36 1027.08 1026.80 1026.40 1026.08 1025.80 1025.48 1025.08 1024.72 1024.32 1023.96 1023.64 1023.24 1022.88 1022.44 1022.00 1021.72 1021.48 1021.24 1020.96 1020.64 1020.28 1019.96 1019.64 1019.36 1019.00 1018.64 1018.28 1017.92 1017.52 1017.16 1016.80 1016.48 1016.04 1015.64 1015.20 1014.80 1014.36 1013.92 1013.56 1013.20 1012.84 1012.52 1012.24 1011.92 1011.64 1011.40 1011.20 1011.00 1010.84 1010.68 1010.52 1010.36
1031.12 1030.96 1030.80 1030.64 1030.44 1030.28 1030.08 1029.88 1029.64 1029.36 1029.08 1028.72 1028.40 1028.16 1027.92 1027.68 1027.40 1027.12 1026.80 1026.48 1026.12 1025.80 1025.44 1025.08 1024.68 1024.36 1024.00 1023.64 1023.24 1022.84 1022.40 1021.96 1021.68 1021.44 1021.20 1020.92 1020.60 1020.24 1019.92 1019.60 1019.32 1019.00 1018.64 1018.28 1017.92 1017.52 1017.16 1016.80 1016.44 1016.08 1015.64 1015.24 1014.84 1014.48 1014.12 1013.76 1013.36 1012.92 1012.40 1011.96 1011.64 1011.36 1011.12 1010.92 1010.76 1010.64 1010.52 1010.32 1010.20
1031.28 1031.08 1030.84 1030.64 1030.52 1030.36 1030.20 1029.96 1029.72 1029.40 1029.12 1028.80 1028.48 1028.24 1028.00 1027.80 1027.52 1027.20 1026.88 1026.52 1026.16 1025.76 1025.40 1025.04 1024.68 1024.36 1024.04 1023.64 1023.24 1022.84 1022.40 1021.96 1021.64 1021.40 1021.16 1020.88 1020.56 1020.24 1019.92 1019.60 1019.32 1019.00 1018.68 1018.32 1017.92 1017.52 1017.20 1016.84 1016.52 1016.12 1015.72 1015.36 1014.96 1014.56 1014.24 1013.96 1013.60 1013.16 1012.64 1012.08 1011.52 1011.16 1010.88 1010.64 1010.52 1010.40 1010.32 1010.16 1010.04
1031.36 1031.12 1030.96 1030.76 1030.56 1030.40 1030.24 1030.04 1029.80 1029.48 1029.12 1028.80 1028.52 1028.28 1028.08 1027.80 1027.52 1027.24 1026.92 1026.52 1026.16 1025.80 1025.44 1025.08 1024.72 1024.36 1024.04 1023.64 1023.28 1022.84 1022.40 1021.96 1021.64 1021.36 1021.08 1020.84 1020.52 1020.24 1019.92 1019.60 1019.32 1019.00 1018.68 1018.36 1018.00 1017.60 1017.24 1016.88 1016.60 1016.24 1015.84 1015.48 1015.08 1014.64 1014.32 1014.04 1013.72 1013.36 1012.84 1012.32 1011.76 1011.24 1010.80 1010.52 1010.28 1010.20 1010.08 1009.96 1009.80
1031.36 1031.16 1030.96 1030.80 1030.64 1030.48 1030.28 1030.08 1029.80 1029.52 1029.20 1028.88 1028.64 1028.40 1028.16 1027.88 1027.60 1027.28 1026.96 1026.60 1026.24 1025.84 1025.52 1025.08 1024.72 1024.36 1024.00 1023.64 1023.24 1022.88 1022.44 1022.04 1021.64 1021.36 1021.08 1020.80 1020.48 1020.20 1019.92 1019.64 1019.36 1019.04 1018.72 1018.40 1018.08 1017.68 1017.28 1016.96 1016.64 1016.32 1015.96 1015.56 1015.16 1014.76 1014.40 1014.08 1013.76 1013.36 1012.96 1012.48 1012.00 1011.56 1011.08 1010.60 1010.24 1010.04 1009.88 1009.72 1009.60
1031.52 1031.28 1031.08 1030.84 1030.64 1030.52 1030.36 1030.08 1029.84 1029.52 1029.24 1028.96 1028.68 1028.48 1028.24 1027.96 1027.68 1027.36 1027.08 1026.72 1026.32 1025.92 1025.52 1025.16 1024.76 1024.36 1023.96 1023.60 1023.24 1022.92 1022.52 1022.12 1021.76 1021.36 1021.08 1020.76 1020.48 1020.20 1019.92 1019.64 1019.36 1019.08 1018.80 1018.48 1018.12 1017.80 1017.36 1017.00 1016.64 1016.32 1016.00 1015.68 1015.24 1014.84 1014.48 1014.12 1013.80 1013.40 1013.04 1012.64 1012.24 1011.84 1011.36 1010.88 1010.36 1010.00 1009.72 1009.52 1009.40
1031.72 1031.52 1031.24 1031.04 1030.80 1030.64 1030.40 1030.16 1029.88 1029.52 1029.24 1029.00 1028.76 1028.52 1028.28 1028.00 1027.76 1027.44 1027.12 1026.80 1026.40 1026.04 1025.64 1025.24 1024.80 1024.40 1024.04 1023.64 1023.28 1022.96 1022.56 1022.20 1021.80 1021.44 1021.08 1020.80 1020.48 1020.20 1019.92 1019.68 1019.44 1019.16 1018.84 1018.52 1018.20 1017.84 1017.48 1017.08 1016.68 1016.32 1016.00 1015.68 1015.28 1014.92 1014.52 1014.20 1013.80 1013.48 1013.12 1012.80 1012.44 1012.04 1011.56 1011.12 1010.64 1010.08 1009.64 1009.40 1009.24
1031.92 1031.68 1031.48 1031.24 1031.00 1030.80 1030.52 1030.24 1029.92 1029.60 1029.32 1029.08 1028.84 1028.60 1028.32 1028.08 1027.80 1027.52 1027.20 1026.84 1026.48 1026.08 1025.72 1025.32 1024.92 1024.48 1024.08 1023.68 1023.32 1022.96 1022.64 1022.24 1021.84 1021.48 1021.12 1020.76 1020.44 1020.20 1019.92 1019.68 1019.44 1019.16 1018.88 1018.52 1018.24 1017.92 1017.60 1017.20 1016.80 1016.36 1016.04 1015.68 1015.36 1014.96 1014.60 1014.24 1013.92 1013.52 1013.16 1012.80 1012.48 1012.08 1011.68 1011.32 1010.92 1010.40 1009.88 1009.44 1009.16
1032.16 1031.88 1031.64 1031.40 1031.16 1030.88 1030.60 1030.32 1030.00 1029.64 1029.36 1029.12 1028.92 1028.64 1028.36 1028.08 1027.80 1027.52 1027.20 1026.88 1026.52 1026.12 1025.76 1025.40 1025.00 1024.60 1024.16 1023.76 1023.36 1023.04 1022.68 1022.32 1021.92 1021.52 1021.12 1020.80 1020.48 1020.20 1019.92 1019.64 1019.40 1019.12 1018.84 1018.52 1018.24 1017.96 1017.64 1017.28 1016.88 1016.48 1016.08 1015.76 1015.40 1015.08 1014.68 1014.32 1013.96 1013.64 1013.24 1012.88 1012.52 1012.20 1011.84 1011.52 1011.12 1010.72 1010.24 1009.72 1009.28
1032.28 1032.04 1031.76 1031.52 1031.28 1031.00 1030.64 1030.36 1030.08 1029.80 1029.52 1029.24 1029.00 1028.72 1028.44 1028.12 1027.84 1027.52 1027.24 1026.96 1026.60 1026.24 1025.84 1025.44 1025.08 1024.64 1024.24 1023.84 1023.48 1023.16 1022.80 1022.36 1021.96 1021.52 1021.16 1020.80 1020.52 1020.24 1019.92 1019.64 1019.40 1019.12 1018.84 1018.52 1018.24 1017.96 1017.68 1017.36 1016.96 1016.52 1016.16 1015.80 1015.44 1015.12 1014.80 1014.40 1014.08 1013.72 1013.36 1013.00 1012.64 1012.32 1011.96 1011.64 1011.24 1010.92 1010.52 1010.08 1009.52
1032.36 1032.12 1031.92 1031.64 1031.36 1031.08 1030.80 1030.48 1030.20 1029.92 1029.64 1029.36 1029.08 1028.80 1028.52 1028.20 1027.88 1027.60 1027.32 1027.00 1026.64 1026.32 1025.92 1025.52 1025.16 1024.80 1024.36 1023.96 1023.56 1023.24 1022.88 1022.48 1022.04 1021.60 1021.24 1020.80 1020.52 1020.24 1019.92 1019.64 1019.36 1019.08 1018.80 1018.52 1018.24 1017.92 1017.64 1017.36 1016.96 1016.60 1016.24 1015.88 1015.52 1015.20 1014.84 1014.52 1014.20 1013.84 1013.52 1013.20 1012.84 1012.52 1012.12 1011.76 1011.40 1011.08 1010.68 1010.32 1009.84
1032.44 1032.20 1031.96 1031.68 1031.44 1031.16 1030.88 1030.60 1030.28 1030.04 1029.76 1029.52 1029.24 1028.96 1028.60 1028.28 1027.96 1027.64 1027.36 1027.08 1026.72 1026.36 1026.00 1025.64 1025.28 1024.84 1024.40 1024.00 1023.64 1023.28 1022.92 1022.52 1022.08 1021.68 1021.28 1020.92 1020.56 1020.24 1019.96 1019.68 1019.36 1019.08 1018.80 1018.48 1018.16 1017.84 1017.56 1017.32 1016.96 1016.60 1016.24 1015.88 1015.56 1015.24 1014.96 1014.60 1014.24 1013.92 1013.60 1013.24 1012.96 1012.60 1012.24 1011.92 1011.56 1011.24 1010.84 1010.48 1010.08
1032.48 1032.24 1032.00 1031.76 1031.52 1031.24 1030.96 1030.68 1030.40 1030.16 1029.88 1029.60 1029.32 1029.00 1028.68 1028.36 1028.08 1027.76 1027.44 1027.16 1026.80 1026.36 1026.04 1025.72 1025.36 1024.96 1024.48 1024.08 1023.72 1023.36 1022.96 1022.56 1022.16 1021.80 1021.40 1021.08 1020.68 1020.36 1020.08 1019.72 1019.44 1019.12 1018.80 1018.48 1018.12 1017.80 1017.48 1017.20 1016.92 1016.52 1016.20 1015.88 1015.60 1015.32 1015.00 1014.64 1014.32 1013.96 1013.64 1013.32 1013.00 1012.72 1012.36 1012.08 1011.72 1011.36 1011.04 1010.64 1010.28
1032.52 1032.28 1032.04 1031.76 1031.52 1031.24 1030.96 1030.72 1030.48 1030.24 1029.96 1029.64 1029.36 1029.08 1028.80 1028.48 1028.16 1027.80 1027.52 1027.24 1026.88 1026.48 1026.08 1025.72 1025.36 1024.96 1024.56 1024.12 1023.80 1023.40 1023.04 1022.64 1022.24 1021.88 1021.52 1021.24 1020.84 1020.52 1020.16 1019.80 1019.44 1019.12 1018.80 1018.48 1018.12 1017.80 1017.44 1017.08 1016.80 1016.44 1016.12 1015.88 1015.60 1015.32 1015.04 1014.72 1014.40 1014.08 1013.72 1013.40 1013.08 1012.80 1012.52 1012.24 1011.92 1011.60 1011.24 1010.88 1010.52
1032.52 1032.32 1032.04 1031.80 1031.52 1031.24 1031.00 1030.76 1030.52 1030.28 1030.00 1029.68 1029.40 1029.08 1028.80 1028.48 1028.20 1027.84 1027.52 1027.20 1026.84 1026.52 1026.12 1025.72 1025.36 1024.96 1024.56 1024.20 1023.80 1023.44 1023.08 1022.68 1022.32 1021.96 1021.64 1021.32 1020.96 1020.60 1020.20 1019.80 1019.40 1019.04 1018.72 1018.40 1018.08 1017.76 1017.36 1017.04 1016.68 1016.36 1016.08 1015.84 1015.60 1015.32 1015.04 1014.80 1014.48 1014.12 1013.80 1013.48 1013.20 1012.92 1012.64 1012.36 1012.08 1011.80 1011.48 1011.12 1010.76
1032.60 1032.36 1032.08 1031.84 1031.56 1031.28 1031.04 1030.80 1030.56 1030.28 1030.00 1029.68 1029.36 1029.08 1028.76 1028.48 1028.16 1027.84 1027.52 1027.16 1026.84 1026.52 1026.16 1025.76 1025.36 1024.96 1024.56 1024.20 1023.80 1023.44 1023.08 1022.76 1022.36 1022.04 1021.68 1021.36 1020.96 1020.60 1020.20 1019.80 1019.36 1019.00 1018.64 1018.36 1018.08 1017.72 1017.36 1016.96 1016.60 1016.32 1016.08 1015.84 1015.60 1015.36 1015.08 1014.80 1014.52 1014.24 1013.88 1013.56 1013.28 1013.04 1012.76 1012.52 1012.20 1011.92 1011.64 1011.28 1010.96
1032.64 1032.40 1032.12 1031.88 1031.60 1031.36 1031.08 1030.84 1030.60 1030.28 1029.96 1029.68 1029.36 1029.04 1028.72 1028.44 1028.12 1027.84 1027.52 1027.20 1026.84 1026.52 1026.16 1025.76 1025.36 1025.00 1024.60 1024.20 1023.80 1023.44 1023.08 1022.80 1022.44 1022.08 1021.76 1021.36 1020.96 1020.60 1020.24 1019.80 1019.36 1018.96 1018.56 1018.24 1017.96 1017.64 1017.24 1016.80 1016.52 1016.24 1016.04 1015.80 1015.60 1015.36 1015.08 1014.84 1014.56 1014.24 1013.92 1013.64 1013.36 1013.08 1012.84 1012.60 1012.32 1012.04 1011.76 1011.44 1011.16
1032.72 1032.48 1032.20 1031.92 1031.64 1031.40 1031.16 1030.88 1030.60 1030.32 1029.96 1029.64 1029.32 1029.00 1028.72 1028.40 1028.12 1027.84 1027.52 1027.24 1026.84 1026.48 1026.12 1025.76 1025.36 1024.96 1024.60 1024.24 1023.84 1023.48 1023.12 1022.80 1022.48 1022.12 1021.80 1021.44 1021.00 1020.60 1020.24 1019.80 1019.40 1018.96 1018.52 1018.12 1017.80 1017.40 1017.04 1016.64 1016.40 1016.24 1016.04 1015.80 1015.60 1015.36 1015.08 1014.88 1014.64 1014.32 1014.00 1013.72 1013.44 1013.20 1012.96 1012.68 1012.44 1012.16 1011.92 1011.64 1011.36
1032.76 1032.52 1032.24 1031.92 1031.72 1031.44 1031.16 1030.88 1030.56 1030.24 1029.92 1029.56 1029.24 1028.96 1028.64 1028.40 1028.12 1027.80 1027.52 1027.24 1026.84 1026.52 1026.12 1025.76 1025.36 1024.96 1024.60 1024.24 1023.92 1023.52 1023.20 1022.80 1022.44 1022.08 1021.80 1021.44 1021.04 1020.60 1020.20 1019.80 1019.44 1019.08 1018.64 1018.16 1017.64 1017.12 1016.72 1016.44 1016.28 1016.16 1016.00 1015.80 1015.60 1015.36 1015.16 1014.96 1014.68 1014.40 1014.08 1013.80 1013.52 1013.28 1013.04 1012.80 1012.56 1012.32 1012.08 1011.80 1011.56
1032.80 1032.52 1032.24 1031.96 1031.72 1031.44 1031.16 1030.88 1030.52 1030.16 1029.80 1029.52 1029.20 1028.96 1028.64 1028.40 1028.12 1027.80 1027.52 1027.16 1026.84 1026.52 1026.12 1025.76 1025.40 1025.00 1024.56 1024.24 1023.88 1023.56 1023.24 1022.84 1022.44 1022.08 1021.72 1021.36 1021.00 1020.60 1020.20 1019.80 1019.48 1019.16 1018.80 1018.28 1017.60 1016.96 1016.48 1016.28 1016.12 1016.04 1015.92 1015.80 1015.64 1015.44 1015.24 1015.00 1014.76 1014.48 1014.20 1013.92 1013.68 1013.44 1013.16 1012.92 1012.68 1012.48 1012.24 1012.04 1011.80
1032.80 1032.52 1032.24 1032.00 1031.72 1031.44 1031.12 1030.80 1030.48 1030.12 1029.80 1029.48 1029.16 1028.96 1028.72 1028.44 1028.16 1027.84 1027.52 1027.16 1026.84 1026.52 1026.12 1025.72 1025.36 1024.92 1024.52 1024.20 1023.88 1023.52 1023.24 1022.84 1022.52 1022.12 1021.72 1021.32 1020.96 1020.60 1020.20 1019.84 1019.52 1019.24 1018.96 1018.40 1017.64 1016.96 1016.40 1016.12 1015.92 1015.88 1015.88 1015.80 1015.64 1015.48 1015.24 1015.04 1014.80 1014.60 1014.36 1014.08 1013.84 1013.60 1013.32 1013.04 1012.84 1012.64 1012.40 1012.24 1012.04
1032.80 1032.52 1032.24 1032.00 1031.72 1031.44 1031.12 1030.80 1030.52 1030.16 1029.80 1029.44 1029.16 1028.96 1028.72 1028.48 1028.20 1027.88 1027.52 1027.20 1026.88 1026.52 1026.12 1025.72 1025.32 1024.92 1024.52 1024.24 1023.92 1023.52 1023.16 1022.80 1022.52 1022.20 1021.84 1021.44 1021.00 1020.64 1020.24 1019.92 1019.60 1019.32 1019.00 1018.48 1017.80 1017.16 1016.60 1016.12 1015.80 1015.80 1015.84 1015.80 1015.68 1015.52 1015.36 1015.12 1014.92 1014.68 1014.48 1014.28 1014.04 1013.80 1013.52 1013.24 1013.00 1012.80 1012.60 1012.40 1012.24
1032.80 1032.52 1032.28 1032.00 1031.72 1031.44 1031.12 1030.80 1030.52 1030.16 1029.76 1029.36 1029.12 1028.96 1028.76 1028.52 1028.24 1027.92 1027.60 1027.24 1026.92 1026.52 1026.12 1025.72 1025.36 1024.96 1024.64 1024.32 1023.96 1023.60 1023.24 1022.88 1022.56 1022.24 1021.92 1021.52 1021.08 1020.72 1020.36 1020.00 1019.68 1019.40 1019.04 1018.48 1017.80 1017.24 1016.72 1016.36 1015.96 1015.84 1015.88 1015.88 1015.80 1015.64 1015.44 1015.24 1015.04 1014.80 1014.64 1014.40 1014.20 1013.92 1013.68 1013.44 1013.24 1013.00 1012.80 1012.60 1012.36
1032.80 1032.52 1032.24 1031.96 1031.68 1031.40 1031.12 1030.80 1030.48 1030.08 1029.72 1029.40 1029.20 1029.00 1028.80 1028.56 1028.28 1027.92 1027.64 1027.28 1026.92 1026.52 1026.08 1025.72 1025.40 1025.08 1024.76 1024.40 1024.08 1023.68 1023.32 1022.96 1022.60 1022.24 1021.92 1021.56 1021.20 1020.84 1020.48 1020.08 1019.80 1019.48 1019.08 1018.48 1017.88 1017.28 1016.80 1016.48 1016.08 1015.92 1015.88 1015.92 1015.88 1015.76 1015.52 1015.36 1015.16 1014.96 1014.80 1014.56 1014.36 1014.12 1013.88 1013.64 1013.40 1013.20 1013.00 1012.80 1012.56
1032.80 1032.52 1032.24 1031.96 1031.68 1031.40 1031.08 1030.80 1030.52 1030.12 1029.80 1029.48 1029.28 1029.08 1028.84 1028.56 1028.28 1027.96 1027.64 1027.28 1026.92 1026.52 1026.16 1025.80 1025.52 1025.20 1024.88 1024.52 1024.12 1023.76 1023.36 1023.00 1022.64 1022.28 1021.92 1021.60 1021.24 1020.88 1020.56 1020.24 1019.88 1019.52 1019.08 1018.52 1017.92 1017.36 1016.88 1016.56 1016.08 1015.92 1015.88 1015.88 1015.92 1015.80 1015.68 1015.52 1015.32 1015.12 1014.92 1014.72 1014.52 1014.28 1014.08 1013.80 1013.60 1013.36 1013.16 1012.96 1012.76
1032.84 1032.56 1032.28 1032.00 1031.72 1031.40 1031.08 1030.80 1030.52 1030.20 1029.84 1029.56 1029.36 1029.16 1028.88 1028.56 1028.28 1027.96 1027.64 1027.32 1026.96 1026.64 1026.32 1026.00 1025.68 1025.36 1024.96 1024.60 1024.24 1023.80 1023.40 1023.04 1022.64 1022.28 1021.92 1021.60 1021.28 1020.96 1020.64 1020.28 1019.96 1019.60 1019.16 1018.60 1018.00 1017.40 1016.92 1016.52 1016.08 1015.92 1015.92 1015.92 1015.92 1015.92 1015.80 1015.64 1015.44 1015.24 1015.08 1014.84 1014.64 1014.44 1014.24 1014.00 1013.80 1013.60 1013.36 1013.12 1012.96
1032.84 1032.60 1032.32 1032.04 1031.76 1031.44 1031.12 1030.84 1030.56 1030.24 1029.88 1029.64 1029.40 1029.16 1028.88 1028.60 1028.32 1028.08 1027.76 1027.44 1027.08 1026.72 1026.36 1026.08 1025.80 1025.40 1025.04 1024.64 1024.28 1023.92 1023.52 1023.08 1022.64 1022.32 1022.00 1021.68 1021.36 1021.08 1020.72 1020.36 1020.04 1019.68 1019.24 1018.64 1018.08 1017.52 1016.96 1016.52 1016.20 1016.00 1015.96 1015.96 1016.00 1015.96 1015.88 1015.72 1015.56 1015.40 1015.20 1015.00 1014.80 1014.60 1014.40 1014.20 1013.96 1013.80 1013.60 1013.36 1013.16
1032.84 1032.60 1032.32 1032.00 1031.72 1031.44 1031.12 1030.84 1030.56 1030.24 1029.92 1029.64 1029.48 1029.24 1028.96 1028.64 1028.40 1028.16 1027.84 1027.52 1027.12 1026.76 1026.40 1026.12 1025.80 1025.44 1025.04 1024.68 1024.32 1023.96 1023.56 1023.12 1022.76 1022.36 1022.08 1021.80 1021.52 1021.16 1020.80 1020.44 1020.08 1019.76 1019.32 1018.76 1018.16 1017.52 1017.04 1016.64 1016.36 1016.16 1016.08 1016.08 1016.08 1016.04 1015.92 1015.80 1015.64 1015.52 1015.36 1015.12 1014.96 1014.76 1014.60 1014.44 1014.24 1014.00 1013.80 1013.56 1013.36
1032.80 1032.56 1032.32 1032.04 1031.76 1031.44 1031.12 1030.84 1030.56 1030.24 1029.92 1029.68 1029.48 1029.24 1029.00 1028.68 1028.44 1028.16 1027.88 1027.52 1027.16 1026.80 1026.52 1026.24 1025.92 1025.52 1025.20 1024.80 1024.40 1024.00 1023.56 1023.20 1022.80 1022.48 1022.20 1021.92 1021.64 1021.28 1020.92 1020.52 1020.24 1019.84 1019.36 1018.84 1018.24 1017.64 1017.08 1016.68 1016.48 1016.28 1016.16 1016.16 1016.12 1016.08 1016.00 1015.92 1015.76 1015.64 1015.48 1015.24 1015.08 1014.92 1014.76 1014.64 1014.40 1014.20 1014.00 1013.80 1013.56
1032.76 1032.52 1032.28 1032.04 1031.76 1031.44 1031.12 1030.84 1030.52 1030.24 1029.92 1029.64 1029.44 1029.24 1029.04 1028.76 1028.44 1028.16 1027.88 1027.56 1027.20 1026.92 1026.64 1026.36 1026.08 1025.72 1025.36 1025.00 1024.60 1024.16 1023.72 1023.28 1022.92 1022.56 1022.28 1022.00 1021.72 1021.40 1021.04 1020.64 1020.36 1019.96 1019.48 1018.92 1018.32 1017.68 1017.16 1016.76 1016.52 1016.36 1016.24 1016.24 1016.20 1016.12 1016.04 1015.92 1015.84 1015.72 1015.56 1015.40 1015.20 1015.04 1014.88 1014.72 1014.52 1014.36 1014.20 1013.96 1013.76
1032.76 1032.52 1032.28 1032.00 1031.76 1031.48 1031.16 1030.84 1030.52 1030.20 1029.92 1029.64 1029.44 1029.24 1029.00 1028.76 1028.52 1028.24 1027.92 1027.64 1027.32 1026.96 1026.68 1026.40 1026.08 1025.76 1025.36 1025.00 1024.64 1024.24 1023.84 1023.44 1023.08 1022.72 1022.40 1022.08 1021.80 1021.48 1021.12 1020.80 1020.48 1020.08 1019.52 1019.00 1018.44 1017.80 1017.24 1016.80 1016.56 1016.40 1016.36 1016.36 1016.28 1016.20 1016.08 1016.00 1015.92 1015.80 1015.64 1015.52 1015.36 1015.20 1015.00 1014.80 1014.64 1014.52 1014.36 1014.20 1013.92
1032.76 1032.52 1032.24 1032.00 1031.72 1031.44 1031.16 1030.80 1030.52 1030.16 1029.92 1029.64 1029.44 1029.24 1028.96 1028.76 1028.52 1028.28 1028.04 1027.72 1027.36 1027.08 1026.72 1026.40 1026.08 1025.76 1025.40 1025.04 1024.68 1024.32 1023.96 1023.64 1023.24 1022.88 1022.52 1022.24 1021.92 1021.60 1021.24 1020.92 1020.56 1020.12 1019.64 1019.08 1018.52 1017.96 1017.36 1016.88 1016.60 1016.52 1016.52 1016.52 1016.44 1016.32 1016.16 1016.08 1015.92 1015.84 1015.76 1015.64 1015.48 1015.32 1015.16 1015.00 1014.80 1014.68 1014.52 1014.36 1014.12
1032.76 1032.52 1032.28 1032.00 1031.76 1031.48 1031.16 1030.88 1030.52 1030.20 1029.92 1029.68 1029.48 1029.24 1029.04 1028.80 1028.52 1028.28 1028.04 1027.72 1027.44 1027.12 1026.80 1026.48 1026.12 1025.80 1025.52 1025.16 1024.80 1024.44 1024.08 1023.76 1023.44 1023.08 1022.76 1022.40 1022.08 1021.72 1021.36 1021.00 1020.64 1020.24 1019.76 1019.24 1018.64 1018.12 1017.56 1017.08 1016.72 1016.64 1016.68 1016.72 1016.64 1016.48 1016.32 1016.20 1016.08 1015.92 1015.84 1015.80 1015.64 1015.52 1015.36 1015.20 1015.04 1014.80 1014.64 1014.52 1014.28
1032.72 1032.52 1032.28 1032.00 1031.76 1031.52 1031.24 1030.88 1030.52 1030.24 1029.92 1029.68 1029.48 1029.28 1029.08 1028.84 1028.56 1028.32 1028.08 1027.80 1027.56 1027.24 1026.92 1026.56 1026.24 1025.92 1025.60 1025.24 1024.92 1024.52 1024.16 1023.88 1023.56 1023.24 1022.96 1022.60 1022.24 1021.84 1021.48 1021.16 1020.80 1020.36 1019.92 1019.36 1018.80 1018.28 1017.80 1017.28 1016.96 1016.88 1016.92 1016.96 1016.88 1016.72 1016.52 1016.36 1016.24 1016.08 1015.96 1015.92 1015.80 1015.64 1015.52 1015.36 1015.24 1015.00 1014.80 1014.60 1014.44
1032.68 1032.48 1032.24 1032.00 1031.76 1031.52 1031.24 1030.88 1030.56 1030.24 1029.96 1029.72 1029.48 1029.24 1029.08 1028.84 1028.64 1028.36 1028.16 1027.92 1027.72 1027.40 1027.08 1026.68 1026.32 1026.00 1025.68 1025.36 1024.96 1024.56 1024.24 1023.92 1023.64 1023.40 1023.12 1022.80 1022.44 1022.04 1021.68 1021.36 1020.96 1020.56 1020.08 1019.60 1019.04 1018.52 1018.00 1017.52 1017.24 1017.12 1017.12 1017.24 1017.12 1016.96 1016.80 1016.64 1016.48 1016.28 1016.16 1016.08 1015.92 1015.80 1015.68 1015.56 1015.40 1015.24 1015.00 1014.80 1014.64
1032.64 1032.44 1032.24 1032.00 1031.76 1031.52 1031.24 1030.88 1030.56 1030.28 1030.00 1029.76 1029.52 1029.24 1029.08 1028.84 1028.64 1028.44 1028.24 1027.96 1027.76 1027.48 1027.12 1026.76 1026.36 1026.08 1025.76 1025.36 1025.00 1024.64 1024.28 1023.96 1023.76 1023.52 1023.24 1022.96 1022.64 1022.24 1021.88 1021.56 1021.24 1020.80 1020.36 1019.84 1019.28 1018.76 1018.28 1017.80 1017.52 1017.36 1017.36 1017.48 1017.40 1017.24 1017.04 1016.84 1016.68 1016.52 1016.36 1016.24 1016.16 1016.04 1015.92 1015.76 1015.60 1015.48 1015.28 1015.08 1014.92
1032.56 1032.36 1032.16 1031.92 1031.64 1031.44 1031.16 1030.88 1030.52 1030.24 1030.00 1029.76 1029.52 1029.28 1029.08 1028.84 1028.64 1028.48 1028.24 1027.96 1027.72 1027.44 1027.12 1026.80 1026.44 1026.08 1025.80 1025.44 1025.08 1024.68 1024.36 1024.08 1023.80 1023.56 1023.36 1023.08 1022.76 1022.40 1022.08 1021.80 1021.40 1021.04 1020.60 1020.16 1019.60 1019.04 1018.56 1018.16 1017.80 1017.64 1017.60 1017.64 1017.64 1017.48 1017.28 1017.12 1016.96 1016.76 1016.60 1016.48 1016.36 1016.24 1016.12 1015.96 1015.80 1015.68 1015.52 1015.40 1015.20
Wind_Speed
13 12 11 11 11 10 10 9 10 10 10 10 11 11 11 10 10 10 10 10 10 10 10 10 11 12 14 17 18 18 18 18 18 19 19 19 19 19 19 18 18 18 18 19 18 16 15 15 14 12 10 10 10 10 10 10 10 11 11 11 10 11 13 15 15 15 16 16 13
14 14 13 12 12 11 10 10 10 11 11 10 10 10 10 10 10 10 10 11 10 11 11 10 12 14 16 17 17 18 18 18 18 19 19 19 19 19 19 18 18 19 19 19 18 15 14 15 13 12 10 10 10 10 10 10 11 11 12 13 12 11 11 13 13 15 15 14 12
14 14 13 13 13 12 11 10 11 12 13 12 11 10 10 10 10 10 10 11 12 12 12 11 12 14 16 17 17 17 17 17 18 18 17 17 18 19 19 18 19 19 19 19 18 16 15 15 13 11 10 10 11 11 11 11 11 11 12 13 11 10 10 10 11 11 11 9 10
15 14 13 13 15 15 14 11 13 14 14 11 11 11 10 10 10 10 11 12 13 13 12 12 13 14 15 16 18 18 18 18 18 17 17 17 18 19 19 19 19 19 19 19 19 18 17 17 13 11 10 11 12 12 11 10 11 11 10 10 10 10 10 9 9 9 8 8 10
15 14 13 13 15 15 14 13 15 15 13 11 10 10 10 10 10 11 11 12 12 12 13 15 14 14 14 16 19 20 19 18 17 16 16 17 18 18 19 19 19 19 18 19 19 19 18 18 12 10 10 11 11 11 11 13 13 12 11 9 9 9 9 9 8 8 8 8 9
14 14 14 14 15 15 14 13 15 15 13 11 12 12 12 11 11 12 13 13 13 14 16 16 15 15 16 17 19 19 18 17 16 15 16 17 17 18 19 19 19 19 18 18 19 19 18 16 12 10 10 10 11 12 14 15 14 13 12 10 9 9 8 9 8 8 8 8 9
15 15 15 15 15 15 15 15 15 14 13 12 13 14 15 14 14 15 16 15 14 14 14 14 14 15 16 17 18 17 17 16 15 16 16 16 17 18 18 18 19 19 19 19 19 18 17 15 11 10 10 11 10 12 14 15 15 15 14 13 10 9 9 10 8 8 8 9 10
14 15 15 15 15 16 16 17 16 14 13 12 13 16 17 17 18 18 17 15 14 14 13 13 15 17 17 17 17 17 17 17 16 16 16 16 17 18 18 18 18 19 19 19 18 18 17 13 10 10 10 10 10 11 13 16 16 16 16 15 12 10 9 9 8 8 8 9 9
14 14 15 15 15 16 16 17 16 15 14 14 15 17 18 18 18 18 16 15 14 14 14 14 16 18 18 18 18 17 17 16 16 16 16 16 17 18 18 17 18 18 18 18 18 18 17 13 10 10 11 10 11 12 14 16 17 16 15 14 13 13 13 12 10 9 9 8 8
15 15 15 15 16 16 17 17 16 16 16 15 16 17 18 18 17 16 15 14 15 15 16 16 17 18 18 18 17 17 16 16 16 16 17 17 17 17 17 16 17 18 18 17 17 17 16 12 12 12 13 13 14 14 15 16 16 16 15 11 13 15 17 16 14 11 10 8 7
16 16 16 15 16 17 17 16 15 15 15 15 16 17 17 17 17 16 15 15 16 17 17 17 18 18 17 16 16 16 16 16 16 16 17 17 17 17 17 16 17 18 18 17 16 15 13 12 13 15 16 15 15 15 15 16 16 16 15 13 14 15 17 18 17 13 10 9 8
16 16 16 16 17 17 16 16 14 14 14 15 16 16 16 16 17 17 17 17 17 17 17 17 18 17 17 15 15 16 16 17 17 17 17 17 17 17 17 17 17 18 18 18 16 14 13 14 15 17 18 18 14 13 14 16 15 15 16 16 16 15 15 17 17 15 12 9 9
16 16 16 16 17 17 16 15 14 13 14 16 16 16 16 16 17 17 17 18 17 16 16 16 17 17 16 15 15 16 16 17 18 17 17 17 17 17 17 17 17 17 17 17 15 14 14 15 17 17 18 17 15 14 14 15 15 15 15 16 16 16 15 16 16 16 15 14 11
16 16 16 16 17 16 15 15 13 13 14 16 16 16 16 15 16 16 17 17 17 16 16 16 15 15 16 17 16 17 17 18 18 18 18 18 18 18 18 17 17 17 17 15 15 16 16 16 17 17 17 17 16 16 16 15 14 14 14 15 16 16 16 15 15 16 16 16 14
16 16 16 16 16 15 14 14 12 12 14 15 16 16 15 15 15 16 16 17 17 16 15 15 15 15 16 17 18 18 18 18 18 18 19 19 19 19 18 18 18 18 17 16 16 16 16 17 17 17 16 16 16 16 15 15 14 13 13 13 14 15 15 16 16 15 15 16 15
15 16 16 16 16 15 15 14 12 12 13 15 16 16 15 14 15 15 17 17 16 15 15 16 16 15 16 17 17 18 18 17 18 18 18 18 19 19 19 19 19 19 18 18 17 16 16 16 16 16 15 15 15 15 15 14 14 13 13 13 13 14 15 16 16 15 15 15 15
16 16 16 16 16 16 16 15 13 13 14 15 16 16 16 15 15 15 16 17 16 16 16 17 16 16 15 16 16 16 16 16 16 17 17 18 19 19 19 19 19 19 19 18 18 17 17 17 16 15 14 14 14 14 14 14 13 13 13 13 13 14 14 15 15 15 15 16 15
16 16 16 16 16 16 16 16 15 15 16 16 17 16 16 16 16 16 16 17 17 18 18 19 17 16 16 16 16 15 14 15 16 16 17 18 18 18 19 19 19 19 18 18 17 18 18 17 16 15 13 13 12 12 13 13 12 12 13 13 13 13 14 14 15 15 14 15 16
16 16 16 16 17 17 17 17 16 16 16 16 16 16 17 17 17 17 17 17 18 18 19 18 17 17 17 17 17 16 15 15 16 17 18 18 18 18 18 19 19 19 18 17 17 18 18 17 15 14 12 12 12 12 12 12 12 12 12 12 12 13 13 14 14 14 14 15 15
16 16 16 16 17 17 17 17 16 16 16 16 16 17 17 18 18 18 18 18 18 18 18 18 17 17 17 18 18 17 16 14 16 17 18 18 18 18 18 19 19 19 18 17 17 17 17 16 13 12 11 11 12 12 12 11 11 12 12 11 11 12 12 13 13 14 14 14 15
16 16 16 16 17 17 17 16 16 16 16 16 17 17 18 18 18 18 19 19 19 18 18 18 18 18 18 18 18 18 17 14 15 16 17 17 17 18 18 18 18 18 18 17 17 17 16 14 11 10 9 10 11 11 11 11 11 11 12 10 11 11 12 12 12 13 14 14 14
16 16 16 16 16 17 17 17 16 16 16 16 16 17 17 18 18 18 19 18 18 18 18 18 18 18 18 18 18 17 17 15 16 16 16 16 16 17 17 17 17 18 18 18 18 17 15 11 8 7 7 9 10 10 11 11 11 11 11 12 11 11 11 11 11 12 12 13 13
16 15 15 15 16 17 17 17 17 17 17 16 16 17 17 18 18 19 19 18 18 18 18 17 16 17 17 17 17 17 17 17 17 17 16 16 16 17 17 16 17 17 18 17 18 17 13 7 5 4 6 7 8 9 10 10 10 10 11 12 12 11 11 11 11 11 11 12 12
16 16 15 14 16 17 17 17 17 17 17 17 16 16 17 18 18 18 18 18 18 18 17 16 15 16 17 17 17 17 18 18 18 18 18 17 17 17 17 15 15 15 16 15 20 20 16 4 2 2 5 6 7 8 9 9 10 10 10 11 11 11 11 11 11 11 11 12 11
16 16 16 15 16 16 17 17 17 17 17 17 16 16 17 18 18 18 18 18 18 18 18 17 16 16 16 16 16 17 17 18 18 18 18 18 18 17 16 14 14 13 14 16 25 29 25 12 7 6 5 6 7 8 8 9 10 11 11 11 11 11 11 11 11 11 11 11 11
16 16 16 16 16 17 17 17 17 17 17 17 16 16 17 17 17 18 18 18 18 18 17 17 16 16 15 15 17 17 17 17 17 17 17 17 18 18 17 14 13 12 13 18 27 32 30 19 15 11 8 6 7 8 8 9 10 11 11 11 11 11 11 11 11 11 11 10 11
16 16 16 16 16 16 17 17 17 17 17 17 17 17 17 17 17 17 18 18 18 17 16 15 15 15 15 15 17 18 18 17 17 17 17 17 17 18 17 15 13 12 14 22 29 32 30 22 17 14 12 8 7 8 8 8 10 11 11 11 11 11 12 11 11 11 11 10 10
15 16 16 16 16 16 16 17 17 17 17 17 17 17 17 18 18 18 18 17 17 16 15 14 14 13 12 13 15 17 18 18 17 16 16 16 17 17 17 15 14 15 19 26 30 32 30 25 17 14 13 10 7 7 7 8 9 9 9 10 10 11 11 11 10 10 10 10 10
15 15 16 16 16 16 16 17 17 17 17 17 17 17 18 18 18 18 18 18 17 16 14 13 12 12 12 14 15 17 17 18 17 16 16 17 18 17 17 16 15 17 22 28 30 31 30 28 17 13 13 11 7 6 6 7 8 8 8 8 9 10 11 10 10 10 10 10 10
14 15 15 15 15 16 16 16 17 17 17 16 17 17 18 17 17 17 18 18 17 16 15 14 13 14 15 16 16 16 16 16 16 16 16 17 18 18 18 17 16 17 21 27 30 30 30 31 17 13 12 12 8 6 5 6 7 8 8 8 9 10 11 11 11 11 11 10 10
14 14 14 15 15 16 16 16 16 17 17 16 17 17 17 17 17 17 17 17 16 16 16 16 16 17 17 17 16 16 16 16 16 16 17 17 18 18 18 17 17 18 21 27 29 30 30 31 18 13 12 12 9 6 6 6 7 7 8 8 10 11 11 11 11 12 12 11 10
13 14 14 15 15 15 16 16 16 16 17 17 17 17 18 18 17 17 16 16 16 17 17 17 18 18 18 18 17 17 17 17 17 17 17 18 18 18 18 17 17 18 21 27 28 29 29 29 19 13 11 12 9 7 6 6 7 7 8 9 11 12 12 11 11 12 12 11 10
14 14 14 14 15 15 16 16 16 16 16 17 17 17 17 17 17 16 16 16 16 16 17 17 17 17 17 17 18 18 18 17 18 18 19 19 18 18 18 16 15 17 22 27 28 29 28 28 19 13 10 10 8 6 6 6 6 6 7 9 10 11 12 12 12 12 12 11 9
14 14 14 14 15 15 15 16 16 16 16 16 16 17 17 17 17 16 16 15 15 15 15 15 16 16 16 16 17 17 17 17 17 18 19 19 18 18 18 16 13 17 23 27 28 28 28 28 21 14 9 8 6 6 6 7 6 7 8 9 10 11 12 12 12 12 12 11 9
14 14 14 15 15 15 15 16 16 16 16 16 16 17 17 17 16 16 15 16 16 15 15 15 15 15 15 16 16 17 17 18 18 19 19 19 18 18 18 17 16 20 25 28 28 29 29 28 22 15 9 6 5 5 5 6 6 7 8 9 10 11 12 12 11 11 11 11 9
14 14 15 15 15 15 15 16 16 16 16 16 16 16 17 17 16 15 15 15 15 16 16 16 16 16 16 16 16 16 17 18 18 19 19 19 19 18 18 19 19 22 25 28 29 29 29 28 22 15 9 5 4 4 5 5 6 7 8 9 10 11 12 11 11 11 11 10 9
14 14 14 15 15 15 15 16 16 16 16 16 16 16 16 16 15 15 14 14 14 15 16 16 16 16 16 16 16 16 16 17 18 18 18 18 18 18 19 19 19 21 24 28 30 30 29 27 24 17 10 5 5 5 5 5 5 6 7 8 9 10 10 9 10 10 11 11 10
14 14 14 14 15 15 15 15 15 16 16 15 15 15 15 15 14 14 14 14 14 14 15 15 15 16 16 16 15 15 16 16 17 18 18 18 18 18 19 19 19 20 23 27 30 30 29 27 25 19 12 5 5 5 5 5 5 6 6 7 7 9 9 8 8 9 10 13 13
14 14 14 14 14 15 15 15 15 15 15 15 15 14 14 14 13 13 13 13 13 13 14 14 15 16 16 16 15 15 15 16 17 17 17 17 17 19 20 19 19 20 22 27 30 30 29 28 27 22 15 6 5 5 5 5 5 6 6 6 6 7 8 7 7 8 9 13 15
14 14 14 14 14 14 15 15 15 15 14 14 14 14 14 14 13 13 13 12 12 12 13 13 15 16 16 15 14 14 14 15 16 16 16 16 17 19 20 18 19 20 22 26 29 30 29 29 28 25 18 6 5 5 5 5 5 6 6 6 6 6 7 7 7 7 8 11 13
13 13 13 14 14 14 15 15 15 14 14 13 14 13 13 13 13 13 13 12 13 12 12 12 14 16 16 15 13 13 14 15 16 16 16 16 16 17 17 17 18 19 21 24 27 28 29 29 29 27 21 10 6 5 5 5 5 6 6 6 5 5 6 6 7 7 8 9 10
Wind_Direction
343 343 343 342 341 338 336 335 336 337 336 332 328 325 325 325 327 328 328 327 324 322 319 318 317 317 317 318 318 318 319 319 321 324 326 327 327 326 326 326 326 326 325 322 321 320 320 321 317 312 306 300 293 288 283 278 276 274 272 271 272 273 275 276 275 273 271 268 267
343 343 343 343 342 340 337 336 337 337 335 331 326 325 326 328 329 328 327 326 323 320 318 315 316 316 316 317 318 319 318 318 321 324 327 328 327 327 327 327 327 327 326 324 323 322 322 322 318 313 308 304 299 294 289 284 281 277 275 274 274 273 272 270 268 267 268 269 269
342 343 344 345 345 343 340 338 337 335 333 329 327 327 328 330 329 328 326 325 321 319 317 315 315 316 317 318 319 319 318 317 322 325 328 327 327 327 327 327 328 328 327 325 325 324 324 323 319 314 311 308 305 301 296 290 285 279 274 274 273 270 268 267 268 271 275 277 276
341 342 344 345 345 343 341 338 336 334 332 328 327 328 330 331 329 327 324 322 320 319 318 317 316 316 318 320 320 319 317 317 323 326 328 327 326 326 327 327 328 328 328 327 326 325 325 326 322 318 314 312 308 306 303 299 291 283 274 271 269 267 267 270 275 278 279 277 274
341 342 344 344 343 342 341 338 336 334 331 328 328 330 331 330 328 325 324 322 321 320 318 318 317 318 319 320 319 317 316 318 324 328 328 327 326 327 327 328 329 329 329 328 327 327 327 328 325 322 320 317 315 314 313 312 304 294 283 270 265 262 263 267 270 271 271 270 268
339 340 342 342 342 341 340 338 335 333 331 328 330 331 332 330 328 327 325 323 320 318 318 318 319 319 320 320 318 316 316 319 325 328 328 327 327 327 328 329 330 331 330 329 328 327 327 329 327 325 325 323 321 321 323 324 319 311 301 285 271 263 261 264 268 269 268 266 266
337 339 340 340 341 340 339 337 335 333 331 329 331 332 332 330 329 327 326 323 321 320 321 321 322 321 320 320 318 316 316 319 325 328 328 327 327 327 329 330 331 331 331 330 329 328 328 329 327 326 327 328 326 328 329 330 328 324 319 309 295 278 268 266 265 263 261 260 262
336 338 339 339 340 339 338 337 335 333 331 331 333 334 333 331 330 329 327 324 323 322 322 321 321 321 320 320 319 317 317 319 324 327 328 327 327 328 329 330 331 332 332 332 331 329 328 327 327 326 326 327 327 329 331 332 330 329 326 322 316 306 293 280 269 259 254 255 259
336 338 339 339 339 338 337 336 334 333 332 332 334 334 333 332 331 330 328 325 324 323 322 321 321 321 321 321 320 320 319 320 324 326 327 326 327 328 329 330 331 331 332 332 331 329 328 326 326 327 327 327 327 329 331 333 332 331 329 326 326 324 319 307 286 265 250 248 254
336 337 338 338 339 338 337 335 333 332 332 332 334 334 334 333 332 331 328 325 324 323 323 321 322 322 322 323 322 322 321 321 323 324 325 325 326 327 328 329 330 331 331 332 331 329 327 324 326 327 328 327 326 328 331 334 335 335 334 331 331 330 327 322 305 281 254 238 240
336 336 337 338 338 337 336 335 333 332 333 334 335 335 334 334 332 330 328 326 325 324 323 322 323 323 323 323 324 324 323 322 322 323 324 324 325 326 327 328 329 330 330 331 331 329 327 325 326 327 327 326 326 328 331 335 337 337 337 335 334 333 332 331 323 304 273 243 236
335 335 336 337 337 336 335 335 332 332 333 335 335 335 334 333 332 331 329 328 327 325 323 323 323 323 323 323 324 325 324 323 323 322 322 323 324 325 326 327 328 329 329 330 330 329 327 325 324 325 325 326 326 327 330 333 337 339 339 338 338 337 337 337 333 325 307 276 255
335 335 335 336 336 336 335 334 333 333 334 335 335 334 334 333 333 332 331 330 328 326 324 324 324 323 323 323 324 325 325 324 323 323 323 323 324 325 326 326 327 328 328 328 329 329 327 324 323 323 323 325 325 326 328 331 336 339 341 341 341 340 340 339 338 334 327 313 290
335 335 336 336 336 336 335 335 333 333 334 334 334 334 333 332 333 333 332 331 329 327 325 324 324 323 323 323 324 325 325 324 324 323 323 324 324 326 327 327 328 328 327 326 327 326 325 322 321 321 321 323 323 324 326 329 334 339 341 343 343 342 341 340 340 338 336 331 318
336 336 336 336 337 336 335 335 334 334 334 334 333 333 332 332 333 333 332 331 329 327 326 326 324 323 322 323 324 325 325 324 324 324 324 324 325 327 328 328 328 328 327 325 325 325 324 321 319 319 319 321 321 322 324 327 332 337 341 343 344 343 343 343 343 342 341 339 335
337 337 337 337 337 336 336 336 334 333 333 333 332 332 331 332 332 332 332 332 329 328 327 327 324 323 322 323 325 325 325 324 325 325 325 325 326 327 328 329 328 328 327 325 324 323 322 320 317 316 316 318 319 320 322 326 330 335 339 342 344 345 345 345 346 346 345 344 344
338 338 337 337 336 336 336 336 334 333 332 331 331 331 331 332 331 331 331 331 329 328 327 327 325 324 323 324 325 325 325 325 325 325 325 325 326 326 327 328 328 327 326 324 323 322 321 319 316 314 314 316 317 319 321 324 329 334 338 342 344 346 347 347 348 348 348 348 348
338 338 337 336 336 335 335 335 334 332 331 330 329 329 330 331 331 330 330 330 329 328 328 327 326 325 325 325 326 326 326 326 325 325 325 325 325 326 326 327 326 326 325 324 323 322 320 317 314 313 314 316 317 318 321 324 328 333 338 341 344 346 348 348 349 350 350 350 350
338 337 337 336 335 334 334 334 333 331 330 328 328 328 329 330 331 330 329 329 329 328 328 327 326 326 326 326 326 326 326 326 326 325 325 325 325 326 326 327 326 325 325 324 323 321 319 315 312 312 314 317 319 321 323 326 330 334 338 341 343 345 347 348 350 351 351 351 351
337 337 336 335 335 334 333 333 332 330 328 327 327 328 329 331 332 331 330 329 329 328 327 326 326 326 327 327 327 327 328 327 326 326 325 325 326 327 327 327 326 325 324 324 323 320 316 311 309 311 316 320 321 324 327 330 333 336 339 340 342 344 345 347 350 351 352 352 352
336 336 335 335 334 334 333 332 330 328 327 326 327 328 330 332 333 332 331 329 329 328 328 327 327 327 327 327 327 328 328 327 327 326 326 326 326 327 328 328 327 326 325 324 323 318 312 305 305 311 319 324 326 329 332 334 337 339 341 342 343 344 345 347 349 352 353 353 353
335 334 334 334 334 334 333 332 330 328 327 326 327 329 331 334 334 333 331 330 329 329 329 328 327 327 327 327 327 328 328 327 327 326 326 326 327 328 329 330 329 327 326 325 322 316 307 297 298 311 326 332 334 336 337 339 340 341 343 344 345 345 346 347 350 352 353 354 354
334 334 334 334 334 333 333 332 330 329 328 327 328 331 333 335 334 333 332 331 331 330 329 328 327 327 327 327 328 328 328 327 327 328 328 328 328 330 331 331 331 330 328 325 321 318 311 289 288 315 339 343 341 341 341 342 342 343 344 346 346 347 347 349 352 354 356 357 356
333 333 334 333 333 333 332 332 332 331 330 329 330 333 335 336 335 334 333 332 332 331 329 328 326 327 328 329 330 330 329 329 329 329 329 329 330 332 333 333 333 332 330 325 323 328 333 326 311 355 1 355 349 346 345 345 346 346 347 348 348 348 349 351 354 357 359 360 359
333 333 334 333 333 333 333 333 333 332 331 330 332 335 337 337 336 335 334 333 332 331 329 327 327 328 330 332 332 331 331 330 331 330 330 330 331 333 334 334 333 333 330 325 326 334 344 2 21 30 21 6 358 354 352 351 351 351 351 352 351 351 351 353 356 359 0 1 0
333 334 334 333 333 333 334 334 333 332 331 332 336 338 339 338 336 335 334 333 332 331 329 328 330 332 334 334 333 332 332 332 331 331 330 330 332 333 335 334 334 332 329 326 329 337 346 359 13 24 27 17 6 1 359 357 356 355 355 355 355 354 354 356 358 359 360 359 360
333 334 333 333 332 333 333 334 333 332 333 336 340 340 339 337 336 335 335 334 332 331 330 330 333 335 336 335 334 333 332 332 331 331 331 331 332 334 335 334 333 330 328 329 331 337 344 353 6 19 26 25 14 7 3 1 359 357 357 356 356 356 357 358 359 359 358 357 357
334 333 333 332 333 333 333 334 333 334 336 340 342 341 339 337 336 336 335 334 333 332 332 334 335 336 335 334 333 333 332 331 331 332 332 333 334 336 336 334 333 330 330 331 333 336 342 350 360 15 25 28 19 9 3 1 360 358 357 356 356 356 357 357 358 360 359 357 356
333 332 332 332 332 332 333 335 334 335 337 342 342 341 338 337 337 337 336 335 335 335 335 336 335 335 334 333 332 332 331 331 331 332 333 335 337 338 337 335 333 330 331 332 334 336 341 351 359 15 25 28 23 11 2 1 359 357 356 354 354 354 355 355 357 359 0 359 358
332 332 332 332 331 332 333 334 333 334 337 342 342 341 339 338 338 338 337 336 335 335 335 335 333 333 332 332 332 332 332 331 332 333 335 337 339 339 338 336 334 332 331 333 334 336 341 352 4 20 27 25 23 14 2 360 359 357 354 351 350 351 353 353 355 357 359 360 359
331 331 331 331 331 331 332 331 331 333 337 341 341 341 340 339 339 338 337 335 334 333 334 333 332 332 332 332 333 333 332 331 333 336 338 340 341 341 339 337 335 333 332 334 335 336 341 353 8 23 28 23 21 13 1 358 359 357 354 349 348 350 352 352 354 355 356 357 360
331 331 331 331 330 330 330 330 330 333 336 340 341 341 341 340 338 337 336 333 333 333 334 334 334 333 333 334 334 333 333 333 336 339 341 343 343 342 341 339 338 335 333 335 336 337 341 352 8 22 28 23 20 12 3 359 360 358 354 349 347 350 352 353 354 354 353 352 358
331 331 331 330 329 329 329 329 330 332 335 339 340 341 341 339 338 337 335 334 334 334 335 334 334 333 333 334 334 334 334 335 338 341 343 345 345 344 343 342 339 336 335 335 336 337 341 350 5 20 30 24 21 13 6 5 4 0 355 350 349 351 353 354 356 355 353 349 356
331 330 330 330 329 329 329 329 330 332 335 337 339 340 340 339 337 337 336 334 334 334 334 333 332 331 332 333 333 334 335 337 341 343 345 346 346 346 345 346 341 337 336 336 336 337 340 347 2 19 35 26 21 14 11 12 10 5 359 353 351 353 354 356 358 358 355 351 356
330 330 329 329 329 329 328 329 330 332 334 336 338 340 340 338 337 336 334 333 333 333 332 331 331 331 332 334 334 335 337 339 342 344 346 347 346 347 348 347 342 339 337 336 336 337 340 347 3 20 39 29 18 13 15 17 15 9 3 357 355 355 356 357 359 360 358 354 359
328 328 328 328 328 328 328 328 329 331 333 335 337 338 339 337 335 334 333 333 333 332 332 331 331 333 334 335 335 336 338 341 343 344 345 346 346 348 349 349 344 341 339 338 337 339 342 349 4 20 39 31 13 9 15 20 19 13 8 2 359 358 358 357 359 360 359 356 1
326 326 326 326 327 327 327 327 328 330 332 334 335 337 337 336 334 332 332 334 333 332 331 330 331 333 334 334 334 335 337 340 343 344 344 345 346 348 350 350 345 342 340 339 339 342 347 354 6 20 36 32 11 7 13 18 19 16 12 6 2 360 359 357 358 358 358 358 7
324 324 325 325 325 326 326 326 327 328 329 331 333 335 335 335 333 332 332 334 333 331 329 328 329 331 332 332 331 333 336 340 343 344 344 344 345 348 350 350 346 343 341 341 342 346 351 359 8 19 31 37 13 7 10 14 17 17 15 10 4 1 360 358 357 357 357 0 13
322 322 323 323 324 324 324 324 325 326 327 328 330 332 334 335 334 333 331 331 329 327 326 325 327 328 329 330 331 334 338 341 343 343 343 344 344 347 350 350 346 344 343 342 344 349 355 2 9 18 28 42 16 6 7 9 13 16 17 14 7 2 360 358 358 356 357 360 12
319 320 321 322 322 323 322 322 322 323 324 326 328 330 332 335 333 331 329 327 326 325 324 324 325 326 327 329 330 334 339 342 343 343 342 343 344 347 350 350 347 344 343 343 345 351 358 3 7 14 23 42 17 4 2 5 10 14 17 16 10 4 360 358 359 359 359 359 6
317 318 320 320 321 321 320 319 318 319 321 324 325 327 329 332 331 330 328 326 326 326 325 324 325 326 326 327 329 335 341 344 343 342 341 341 343 347 349 350 347 345 344 343 346 352 359 3 5 10 16 29 22 7 358 2 6 10 13 13 11 6 2 358 360 1 2 1 1